Location: Goheenville
(40.9070°N, 79.3720°W)
Time: 03:30:26
(UTC-04:00)

Meteor 2-10 Rocket - Visible Passes

Search period start: 19 August 2017 00:00
Search period end: 29 August 2017 00:00
Orbit: 735 x 884 km, 81.2° (Epoch: 18 August)

Date Brightness Start Highest point End Pass type
(mag) Time Alt. Az. Time Alt. Az. Time Alt. Az.
19 Aug 6.5 05:21:46 10° SE 05:25:29 18° E 05:29:14 10° NE visible
20 Aug 6.7 04:59:08 10° ESE 05:01:27 13° E 05:03:47 10° ENE visible
22 Aug 4.8 05:48:37 10° SSE 05:54:10 51° E 05:59:48 10° NNE visible
23 Aug 5.4 05:24:46 10° SSE 05:30:01 37° E 05:35:18 10° NNE visible
24 Aug 5.9 05:01:09 10° SE 05:05:53 27° E 05:10:40 10° NNE visible
25 Aug 6.3 04:37:49 10° SE 04:41:48 19° E 04:45:49 10° NE visible
26 Aug 6.5 04:14:58 10° ESE 04:17:46 14° E 04:20:33 10° NE visible
26 Aug 3.8 05:53:14 10° SSW 05:59:01 79° W 06:04:52 10° N visible
27 Aug 4.0 05:28:58 10° S 05:34:46 77° E 05:40:35 10° NNE visible
28 Aug 4.5 05:04:54 10° S 05:10:33 55° E 05:16:12 10° NNE visible
